| time (UTC) | temp F | wind direction | speed knots | gust knots | rain 1hr in | rain 24hr in | rain mn in | humidity % | barometer mb |
| 20260506004005 | 35 | 286 | 0.0 | 0.0 | 0.00 | 0.36 | 0.04 | 91 | 1004.1 |
| 20260506003005 | 35 | 286 | 0.0 | 0.0 | 0.00 | 0.36 | 0.04 | 91 | 1004.0 |
| 20260506002005 | 35 | 286 | 0.0 | 0.0 | 0.00 | 0.36 | 0.04 | 91 | 1003.9 |
| 20260506000005 | 35 | 286 | 0.0 | 0.0 | 0.00 | 0.36 | 0.04 | 91 | 1003.9 |
| 20260505235005 | 35 | 286 | 0.0 | 0.0 | 0.00 | 0.37 | 0.04 | 91 | 1003.8 |
| 20260505234005 | 35 | 286 | 0.0 | 0.0 | 0.01 | 0.37 | 0.04 | 90 | 1003.8 |
| 20260505233005 | 35 | 286 | 0.0 | 0.0 | 0.01 | 0.37 | 0.04 | 90 | 1003.7 |
| 20260505231004 | 36 | 286 | 0.0 | 0.0 | 0.03 | 0.37 | 0.04 | 90 | 1003.7 |
| 20260505224005 | 36 | 286 | 0.0 | 0.0 | 0.07 | 0.36 | 0.03 | 91 | 1003.6 |
| 20260505223005 | 36 | 286 | 0.0 | 0.0 | 0.09 | 0.36 | 0.03 | 91 | 1003.5 |
| 20260505222005 | 36 | 286 | 0.0 | 0.0 | 0.12 | 0.35 | 0.02 | 91 | 1003.5 |
| 20260505221005 | 36 | 286 | 0.0 | 0.0 | 0.12 | 0.34 | 0.01 | 91 | 1003.4 |
| 20260505220005 | 35 | 286 | 0.0 | 0.0 | 0.12 | 0.33 | 0.00 | 91 | 1003.4 |
| 20260505215005 | 35 | 286 | 0.0 | 0.0 | 0.12 | 0.32 | 0.32 | 91 | 1003.4 |
| 20260505214005 | 35 | 286 | 0.0 | 0.0 | 0.09 | 0.29 | 0.29 | 92 | 1003.3 |
| 20260505213004 | 35 | 286 | 0.0 | 0.0 | 0.09 | 0.28 | 0.28 | 92 | 1003.3 |
| 20260505212005 | 34 | 213 | 0.0 | 0.0 | 0.05 | 0.24 | 0.24 | 91 | 1003.2 |
| 20260505210004 | 35 | 213 | 0.0 | 0.0 | 0.02 | 0.21 | 0.21 | 91 | 1003.3 |
| 20260505205005 | 36 | 213 | 0.0 | 0.0 | 0.02 | 0.20 | 0.20 | 91 | 1003.2 |
| 20260505204005 | 36 | 213 | 0.0 | 0.0 | 0.01 | 0.20 | 0.20 | 91 | 1003.1 |
| 20260505203005 | 36 | 213 | 0.0 | 0.0 | 0.00 | 0.19 | 0.19 | 92 | 1003.1 |
| 20260505202005 | 36 | 213 | 0.0 | 0.0 | 0.00 | 0.19 | 0.19 | 92 | 1003.1 |
| 20260505201005 | 36 | 213 | 0.0 | 0.0 | 0.00 | 0.19 | 0.19 | 91 | 1003.0 |
| 20260505200004 | 37 | 211 | 0.0 | 0.0 | 0.00 | 0.19 | 0.19 | 91 | 1003.0 |
| 20260505195005 | 37 | 211 | 0.0 | 0.0 | 0.00 | 0.19 | 0.19 | 91 | 1003.0 |
| 20260505194004 | 37 | 211 | 0.0 | 0.0 | 0.00 | 0.19 | 0.19 | 91 | 1003.1 |
| 20260505193004 | 37 | 211 | 0.0 | 0.0 | 0.01 | 0.19 | 0.19 | 91 | 1003.1 |
| 20260505192005 | 37 | 211 | 0.0 | 0.0 | 0.01 | 0.19 | 0.19 | 91 | 1003.2 |
| 20260505191005 | 37 | 211 | 0.0 | 0.0 | 0.01 | 0.19 | 0.19 | 91 | 1003.1 |
| 20260505190005 | 37 | 211 | 0.0 | 0.0 | 0.01 | 0.19 | 0.19 | 91 | 1003.0 |
| 20260505185004 | 37 | 211 | 0.0 | 0.0 | 0.02 | 0.19 | 0.19 | 91 | 1003.1 |
| 20260505183004 | 37 | 223 | 0.0 | 0.0 | 0.01 | 0.18 | 0.18 | 91 | 1003.1 |
| 20260505182005 | 37 | 223 | 0.0 | 0.0 | 0.01 | 0.18 | 0.18 | 91 | 1003.1 |
| 20260505181006 | 37 | 223 | 0.0 | 0.0 | 0.02 | 0.18 | 0.18 | 91 | 1003.0 |
| 20260505180006 | 37 | 268 | 0.0 | 0.0 | 0.02 | 0.18 | 0.18 | 91 | 1003.0 |
| 20260505175005 | 38 | 202 | 0.0 | 0.0 | 0.02 | 0.17 | 0.17 | 91 | 1003.0 |
| 20260505174006 | 37 | 214 | 0.0 | 0.0 | 0.02 | 0.17 | 0.17 | 91 | 1003.0 |
| 20260505173006 | 37 | 205 | 0.0 | 0.0 | 0.02 | 0.17 | 0.17 | 91 | 1003.0 |
| 20260505172005 | 37 | 205 | 0.0 | 0.0 | 0.02 | 0.17 | 0.17 | 92 | 1003.0 |
| 20260505171006 | 37 | 205 | 0.0 | 0.0 | 0.01 | 0.17 | 0.17 | 91 | 1003.0 |
| 20260505170005 | 37 | 205 | 0.0 | 0.0 | 0.01 | 0.17 | 0.17 | 92 | 1003.1 |
| 20260505165006 | 37 | 212 | 0.0 | 0.0 | 0.01 | 0.16 | 0.16 | 92 | 1003.1 |
| 20260505164006 | 37 | 213 | 0.0 | 0.0 | 0.01 | 0.16 | 0.16 | 92 | 1003.0 |
| 20260505163007 | 37 | 213 | 0.0 | 0.0 | 0.01 | 0.16 | 0.16 | 93 | 1003.1 |
| 20260505162006 | 36 | 213 | 0.0 | 0.0 | 0.01 | 0.16 | 0.16 | 92 | 1003.1 |
| 20260505161006 | 36 | 212 | 0.0 | 0.0 | 0.02 | 0.16 | 0.16 | 91 | 1003.2 |
| 20260505153006 | 36 | 213 | 0.0 | 0.0 | 0.03 | 0.15 | 0.15 | 91 | 1003.5 |
| 20260505152006 | 36 | 213 | 0.0 | 0.0 | 0.03 | 0.15 | 0.15 | 89 | 1003.5 |
| 20260505151006 | 37 | 214 | 0.0 | 0.0 | 0.02 | 0.13 | 0.13 | 88 | 1003.4 |
| 20260505125005 | 38 | 276 | 0.0 | 0.0 | 0.02 | 0.09 | 0.09 | 84 | 1002.4 |
| 20260505124006 | 40 | 226 | 0.0 | 0.0 | 0.02 | 0.09 | 0.09 | 81 | 1002.4 |
| 20260505123006 | 42 | 254 | 0.0 | 0.0 | 0.01 | 0.08 | 0.08 | 79 | 1002.4 |
| 20260505122005 | 43 | 209 | 0.0 | 0.0 | 0.00 | 0.07 | 0.07 | 79 | 1002.1 |
| 20260505115006 | 40 | 204 | 0.0 | 0.0 | 0.00 | 0.07 | 0.07 | 90 | 1002.2 |
| 20260505113005 | 42 | 220 | 0.0 | 0.0 | 0.00 | 0.07 | 0.07 | 77 | 1001.9 |
| 20260505112005 | 43 | 227 | 0.0 | 0.0 | 0.00 | 0.07 | 0.07 | 79 | 1001.7 |
| 20260505111005 | 43 | 225 | 0.0 | 0.0 | 0.00 | 0.07 | 0.07 | 81 | 1001.6 |
| 20260505102006 | 39 | 220 | 0.0 | 0.0 | 0.01 | 0.09 | 0.07 | 88 | 1001.7 |
| 20260505101006 | 40 | 220 | 0.0 | 0.0 | 0.01 | 0.09 | 0.07 | 88 | 1001.6 |
| 20260505094006 | 40 | 203 | 0.0 | 0.0 | 0.00 | 0.12 | 0.06 | 92 | 1001.6 |
| 20260505093005 | 39 | 198 | 0.0 | 0.0 | 0.00 | 0.13 | 0.06 | 93 | 1001.6 |
| 20260505092005 | 38 | 202 | 0.0 | 0.0 | 0.00 | 0.13 | 0.06 | 93 | 1001.7 |
| 20260505091005 | 37 | 205 | 0.0 | 0.0 | 0.01 | 0.14 | 0.06 | 92 | 1001.7 |
| 20260505090005 | 37 | 211 | 0.0 | 0.0 | 0.02 | 0.14 | 0.06 | 92 | 1001.8 |
| 20260505085006 | 36 | 202 | 0.0 | 0.0 | 0.02 | 0.15 | 0.06 | 92 | 1001.8 |
| 20260505084006 | 35 | 202 | 0.0 | 0.0 | 0.02 | 0.17 | 0.06 | 91 | 1001.7 |
| 20260505083006 | 35 | 225 | 0.0 | 0.0 | 0.03 | 0.18 | 0.06 | 90 | 1001.7 |
| 20260505081006 | 36 | 173 | 0.0 | 0.0 | 0.05 | 0.20 | 0.06 | 89 | 1001.6 |
| 20260505080005 | 36 | 178 | 0.0 | 0.0 | 0.03 | 0.20 | 0.04 | 89 | 1001.6 |
| 20260505075005 | 36 | 177 | 0.0 | 0.0 | 0.03 | 0.21 | 0.04 | 89 | 1001.5 |
| 20260505073005 | 36 | 219 | 0.0 | 0.0 | 0.02 | 0.23 | 0.03 | 87 | 1001.4 |
| 20260505072005 | 37 | 219 | 0.0 | 0.0 | 0.00 | 0.21 | 0.01 | 86 | 1001.4 |
| 20260505071006 | 38 | 209 | 0.0 | 0.0 | 0.00 | 0.22 | 0.01 | 87 | 1001.2 |
| 20260505070006 | 37 | 210 | 0.0 | 0.0 | 0.00 | 0.24 | 0.01 | 88 | 1001.2 |
| 20260505065005 | 37 | 222 | 0.0 | 0.0 | 0.00 | 0.25 | 0.01 | 87 | 1001.1 |
| 20260505064005 | 37 | 213 | 0.0 | 0.0 | 0.00 | 0.26 | 0.01 | 87 | 1001.1 |
| 20260505063005 | 37 | 208 | 0.0 | 0.0 | 0.00 | 0.28 | 0.01 | 87 | 1000.9 |
| 20260505061005 | 37 | 203 | 0.0 | 0.0 | 0.00 | 0.28 | 0.01 | 88 | 1000.9 |
| 20260505060005 | 36 | 265 | 0.0 | 0.0 | 0.00 | 0.28 | 0.01 | 87 | 1000.9 |
| 20260505055006 | 36 | 266 | 0.0 | 0.0 | 0.00 | 0.28 | 0.01 | 87 | 1000.9 |
| 20260505054005 | 36 | 267 | 0.0 | 0.0 | 0.00 | 0.28 | 0.01 | 88 | 1000.9 |
| 20260505053005 | 35 | 229 | 0.0 | 0.0 | 0.00 | 0.28 | 0.01 | 91 | 1000.9 |
| 20260505052005 | 34 | 229 | 0.0 | 0.0 | 0.00 | 0.28 | 0.01 | 92 | 1000.9 |
| 20260505051005 | 34 | 309 | 0.0 | 0.0 | 0.00 | 0.28 | 0.01 | 92 | 1000.9 |
| 20260505040005 | 33 | 42 | 0.0 | 0.0 | 0.00 | 0.28 | 0.01 | 93 | 1000.5 |
| 20260505035005 | 32 | 42 | 0.0 | 0.0 | 0.00 | 0.28 | 0.01 | 92 | 1000.6 |
| 20260505034005 | 32 | 42 | 0.0 | 0.0 | 0.00 | 0.28 | 0.01 | 92 | 1000.4 |
| 20260505032005 | 32 | 205 | 0.0 | 0.0 | 0.00 | 0.28 | 0.01 | 91 | 1000.4 |
| 20260505031005 | 32 | 205 | 0.0 | 0.0 | 0.00 | 0.28 | 0.01 | 91 | 1000.5 |
| 20260505030005 | 32 | 205 | 0.0 | 0.0 | 0.00 | 0.28 | 0.01 | 91 | 1000.5 |
| 20260505025005 | 32 | 205 | 0.0 | 0.0 | 0.00 | 0.28 | 0.01 | 91 | 1000.6 |
| 20260505024005 | 32 | 205 | 0.0 | 0.0 | 0.00 | 0.28 | 0.01 | 91 | 1000.6 |
| 20260505023004 | 32 | 205 | 0.0 | 0.0 | 0.00 | 0.28 | 0.01 | 91 | 1000.6 |
| 20260505022005 | 33 | 205 | 0.0 | 0.0 | 0.00 | 0.28 | 0.01 | 91 | 1000.6 |
| 20260505021005 | 33 | 205 | 0.0 | 0.0 | 0.00 | 0.28 | 0.01 | 90 | 1000.6 |
| 20260505020005 | 33 | 205 | 0.0 | 0.0 | 0.00 | 0.28 | 0.01 | 90 | 1000.5 |
| 20260505015005 | 34 | 205 | 0.0 | 0.0 | 0.00 | 0.28 | 0.01 | 90 | 1000.3 |
| 20260505014005 | 34 | 285 | 0.0 | 0.0 | 0.00 | 0.28 | 0.01 | 91 | 1000.1 |
| 20260505013005 | 34 | 291 | 0.0 | 0.0 | 0.00 | 0.28 | 0.01 | 91 | 1000.3 |
| 20260505012005 | 34 | 109 | 0.0 | 0.0 | 0.00 | 0.28 | 0.01 | 91 | 1000.5 |
| 20260505010005 | 34 | 335 | 0.0 | 0.0 | 0.00 | 0.28 | 0.01 | 91 | 1000.4 |
| 20260505005005 | 34 | 335 | 0.0 | 0.0 | 0.01 | 0.28 | 0.01 | 90 | 1000.3 |